Location: *
(49.6619°S, 177.4603°W)
Time: 06:09:17
(UTC+00:00)

SPOT 5 - Pass Details

Date: 31 January 2023
Orbit: 623 x 811 km, 98.1° (Epoch: 01 April)

Event Time Altitude Azimuth Distance (km) Brightness Sun altitude
Rises 10:07:53 0° 166° (SSE) 3,344 7.0 -18.3°
Reaches altitude 10° 10:10:13 10° 165° (SSE) 2,421 6.2 -18.4°
Maximum altitude 10:15:39 83° 75° (ENE) 836 3.1 -18.8°
Enters shadow 10:18:39 28° 349° (N) 1,509 4.1 -19.1°
